Location: Pedholt
(56.0260°N, 10.2097°E)
Time: 20:03:58
(UTC+00:00)

Tiros 1 - Pass Details

Date: 10 August 2021
Orbit: 630 x 663 km, 48.4° (Epoch: 19 September)

Event Time Altitude Azimuth Distance (km) Brightness Sun altitude
Rises 15:09:26 0° 232° (SW) 2,990 11.6 31.3°
Reaches altitude 10° 15:12:03 10° 220° (SW) 2,078 10.8 30.9°
Maximum altitude 15:16:04 27° 163° (SSE) 1,266 8.9 30.4°
Drops below altitude 10° 15:20:05 10° 106° (ESE) 2,072 9.4 29.9°
Sets 15:22:41 0° 95° (E) 2,980 10.1 29.5°
